Location: Moscow
(55.7500°N, 37.5830°E)
Time: 09:14:37
(UTC+03:00)

Transit 4A - Pass Details

Date: 09 December 2021
Orbit: 863 x 981 km, 66.8° (Epoch: 23 January)

Event Time Altitude Azimuth Distance (km) Brightness Sun altitude
Rises 20:25:15 0° 242° (WSW) 3,489 11.5 -35.9°
Reaches altitude 10° 20:27:46 10° 246° (WSW) 2,567 10.7 -36.3°
Enters shadow 20:31:40 39° 270° (W) 1,337 9.0 -36.8°
